Location: Dallas
(32.7833°N, 96.8000°W)
Time: 22:39:10
(UTC-05:00)

N. Korean satellite - Pass Details

Date: 21 August 2020
Orbit: 455 x 503 km, 97.2° (Epoch: 22 September)

Event Time Altitude Azimuth Distance (km) Brightness Sun altitude
Rises 06:14:59 0° 28° (NNE) 2,568 11.1 -8.9°
Reaches altitude 10° 06:17:24 10° 44° (NE) 1,690 10.5 -8.4°
Maximum altitude 06:20:17 22° 96° (E) 1,134 9.4 -7.8°
Drops below altitude 10° 06:23:09 10° 148° (SSE) 1,696 9.5 -7.2°
Sets 06:25:34 0° 164° (SSE) 2,580 10.2 -6.8°
